Pittsburgh, PA

1:39 PM EST on December 14, 2019 (GMT -0500)
Pittsburgh International

Weather History for KPIT - October, 2019

Change the Weather History Date:

Wednesday, October 2, 2019

  Actual Average Record
Temperature  
Mean Temperature 77 °F 58 °F  
Max Temperature 84 °F 68 °F 89 °F (1927)
Min Temperature 69 °F 48 °F 32 °F (1958)
Degree Days  
Heating Degree Days 0 8  
Month to date heating degree days 0 16  
Since 1 July heating degree days 8 130  
Cooling Degree Days 12 1  
Month to date cooling degree days 25 2  
Year to date cooling degree days 922 730  
Growing Degree Days 27 (Base 50)    
Moisture  
Dew Point 65 °F    
Average Humidity 70    
Maximum Humidity 91    
Minimum Humidity 51    
Precipitation  
Precipitation T in 0.07 in 3.22 in (1929)
Month to date precipitation T 0.15  
Year to date precipitation 40.09 29.97  
Snow  
Snow 0.00 in 0.00 in T in (1974)
Month to date snowfall 0.0 0.0  
Snow Depth 0.00 in    
Sea Level Pressure  
Sea Level Pressure 29.93 in    
Wind  
Wind Speed 5 mph ()    
Max Wind Speed 16 mph    
Max Gust Speed 22 mph    
Visibility 9.9 miles    
Events Rain    
T = Trace of Precipitation, MM = Missing Value Source: Averaged Metar Reports

Daily Weather History Graph

Daily Weather History Graph

Search for Another Location

Airport or City:

Astronomy

Oct. 02, 2019 Rise Set
Actual Time 7:18 AM EDT 7:01 PM EDT
Civil Twilight 6:50 AM EDT 7:28 PM EDT
Nautical Twilight 6:19 AM EDT 8:00 PM EDT
Astronomical Twilight 5:47 AM EDT 8:32 PM EDT
Moon 11:42 AM EDT (10/2) 9:53 PM EDT (10/2)
Length of Visible Light 12h 38m
Length of Day
11h 43m
Waxing Crescent, 20% of the Moon is Illuminated
Oct 2
Waxing Crescent
Oct 5
First Quarter
Oct 13
Full
Oct 21
Last Quarter
Oct 27
New

Hourly Weather History & Observations

Time (EDT) Temp. Heat Index Dew Point Humidity Pressure Visibility Wind Dir Wind Speed Gust Speed Precip Events Conditions
12:51 AM 75.0 °F - 63.0 °F 66% 29.94 in 10.0 mi WSW 5.8 mph - N/A   Clear
2:51 AM 72.0 °F - 63.0 °F 73% 29.93 in 10.0 mi West 4.6 mph - N/A   Partly Cloudy
3:51 AM 70.0 °F - 63.0 °F 78% 29.94 in 10.0 mi West 3.5 mph - N/A   Partly Cloudy
4:51 AM 71.1 °F - 63.0 °F 75% 29.94 in 10.0 mi Calm Calm - N/A   Partly Cloudy
5:51 AM 70.0 °F - 63.0 °F 78% 29.94 in 10.0 mi Calm Calm - N/A   Scattered Clouds
6:51 AM 69.1 °F - 62.1 °F 78% 29.94 in 10.0 mi Calm Calm - N/A   Scattered Clouds
7:51 AM 70.0 °F - 62.1 °F 76% 29.94 in 10.0 mi SW 3.5 mph - N/A   Scattered Clouds
8:51 AM 73.0 °F - 63.0 °F 71% 29.96 in 10.0 mi WSW 9.2 mph - N/A   Mostly Cloudy
9:51 AM 75.0 °F - 63.0 °F 66% 29.95 in 10.0 mi SW 9.2 mph - N/A   Overcast
10:51 AM 77.0 °F - 64.9 °F 66% 29.95 in 10.0 mi West 12.7 mph - N/A   Mostly Cloudy
11:51 AM 80.1 °F 81.9 °F 64.9 °F 60% 29.94 in 10.0 mi WSW 10.4 mph - N/A   Scattered Clouds
12:51 PM 82.9 °F 84.6 °F 64.9 °F 54% 29.94 in 10.0 mi West 10.4 mph - N/A   Mostly Cloudy
1:51 PM 84.0 °F 85.8 °F 64.9 °F 53% 29.91 in 10.0 mi West 12.7 mph 17.3 mph N/A   Mostly Cloudy
2:51 PM 84.0 °F 85.8 °F 64.9 °F 53% 29.89 in 10.0 mi SW 9.2 mph - N/A   Mostly Cloudy
3:51 PM 84.9 °F 86.6 °F 64.9 °F 51% 29.88 in 10.0 mi SW 10.4 mph - N/A   Mostly Cloudy
4:51 PM 84.0 °F 85.8 °F 64.9 °F 53% 29.88 in 10.0 mi WSW 6.9 mph - N/A   Mostly Cloudy
5:51 PM 82.9 °F 85.0 °F 66.0 °F 56% 29.88 in 10.0 mi West 3.5 mph - N/A   Mostly Cloudy
6:51 PM 82.0 °F 84.1 °F 66.0 °F 58% 29.89 in 10.0 mi WSW 4.6 mph - N/A   Overcast
7:44 PM 75.9 °F - 68.0 °F 76% 29.91 in 10.0 mi North 12.7 mph - 0.00 in   Overcast
7:51 PM 75.0 °F - 66.9 °F 76% 29.92 in 10.0 mi North 13.8 mph - 0.00 in   Overcast
8:51 PM 73.9 °F - 68.0 °F 82% 29.93 in 10.0 mi NNE 5.8 mph - N/A   Overcast
9:51 PM 73.0 °F - 69.1 °F 87% 29.94 in 10.0 mi NE 3.5 mph - N/A   Overcast
10:51 PM 73.0 °F - 69.1 °F 87% 29.94 in 10.0 mi Calm Calm - N/A   Overcast
11:25 PM 73.0 °F - 69.1 °F 87% 29.95 in 9.0 mi North 5.8 mph - N/A   Overcast
11:51 PM 72.0 °F - 69.1 °F 91% 29.94 in 8.0 mi NNE 5.8 mph - 0.00 in Rain Light Rain